Zurück zum Katalog

CZ-6A DEB

AktivPO
NORAD 54939·DEBRIS·🇨🇳 China

Gestartet Nov 11, 2022 von Taiyuan Satellite Launch Center

Loading…

Nächste Überflüge (nächste 24 Stunden)

TLE

AktuellSource: Space-Track

Epoche: Sep 14, 2026, 05:08 UTC

1 54939U 22151SC  26257.21429854  .00002921  00000-0  90724-3 0  9997
2 54939  99.0595 355.3101 0068880 201.8826 157.9415 14.40536161200267

Verfolge CZ-6A DEB in Echtzeit mit AllMySat

Download on the App Store